This is the latest recevied weather packets stored in our database for station/object KB1WCR. If no packets are shown the sender has not sent any weather packets the latest 10 day(s).
| Time | Temp. | Humidity | Pressure | Rain* | Wind** | Luminosity | Snow |
|---|---|---|---|---|---|---|---|
| 1787690045 | 25° C | 65% | 1011.7 hPa | 0 mm | - | 171 W/m² | - |
| 1787689740 | 25° C | 65% | 1011.8 hPa | 0 mm | - | 165 W/m² | - |
| 1787689435 | 24.44° C | 67% | 1011.8 hPa | 0 mm | - | 195 W/m² | - |
| 1787689129 | 24.44° C | 68% | 1011.8 hPa | 0 mm | - | 161 W/m² | - |
| 1787688826 | 25° C | 68% | 1011.8 hPa | 0 mm | - | 105 W/m² | - |
| 1787688521 | 24.44° C | 66% | 1011.8 hPa | 0 mm | - | 117 W/m² | - |
| 1787688221 | 24.44° C | 67% | 1011.8 hPa | 0 mm | - | 135 W/m² | - |
| 1787687916 | 25° C | 67% | 1011.7 hPa | 0 mm | - | 156 W/m² | - |
| 1787687612 | 25° C | 66% | 1011.6 hPa | 0 mm | - | 198 W/m² | - |
| 1787687307 | 25° C | 67% | 1011.6 hPa | 0 mm | - | 202 W/m² | - |
| 1787687003 | 25° C | 65% | 1011.8 hPa | 0 mm | - | 204 W/m² | - |
| 1787686699 | 25.56° C | 64% | 1011.7 hPa | 0 mm | - | 166 W/m² | - |
| 1787686399 | 26.11° C | 61% | 1011.6 hPa | 0 mm | - | 169 W/m² | - |
| 1787686095 | 26.11° C | 62% | 1011.5 hPa | 0 mm | - | 193 W/m² | - |
| 1787685789 | 26.11° C | 59% | 1011.6 hPa | 0 mm | - | 223 W/m² | - |
| 1787685485 | 26.67° C | 59% | 1011.4 hPa | 0 mm | - | 184 W/m² | - |
| 1787685180 | 27.22° C | 59% | 1011.6 hPa | 0 mm | - | 190 W/m² | - |
| 1787684875 | 28.33° C | 57% | 1011.6 hPa | 0 mm | - | 182 W/m² | - |
| 1787684574 | 28.33° C | 55% | 1011.5 hPa | 0 mm | - | 621 W/m² | - |
| 1787684264 | 27.78° C | 59% | 1011.5 hPa | 0 mm | - | 639 W/m² | - |
| 1787683959 | 27.22° C | 59% | 1011.5 hPa | 0 mm | - | 668 W/m² | - |
| 1787683653 | 27.78° C | 60% | 1011.9 hPa | 0 mm | - | 699 W/m² | - |
| 1787683348 | 26.11° C | 64% | 1011.7 hPa | 0 mm | - | 723 W/m² | - |
| 1787683045 | 24.44° C | 67% | 1011.6 hPa | 0 mm | - | 707 W/m² | - |
| 1787682741 | 24.44° C | 68% | 1011.6 hPa | 0 mm | - | 154 W/m² | - |
* Rain latest hour (hover to see other rain measurements)
** Current wind speed in m/s (hover to see current wind gust speed)